Location: Avenches
(46.8809°N, 7.0410°E)
Time: 22:08:14
(UTC+00:00)

ATLAS 2AS CENTAUR R/B - Pass Details

Date: 30 March 2020
Orbit: 933 x 1279 km, 63.7° (Epoch: 25 May)

Event Time Altitude Azimuth Distance (km) Brightness Sun altitude
Rises 21:52:26 0° 318° (NW) 4,168 6.8 -34.0°
Reaches altitude 10° 21:55:22 10° 314° (NW) 3,159 5.9 -34.3°
Enters shadow 22:01:48 48° 262° (W) 1,467 3.4 -34.8°
